Regional Weather Roundup
Issued by NWS New Orleans/Baton Rouge, LA

Home | Current Version | Previous Version | Text Only | Print | Product List | Glossary On
Versions: 1 2 3 4 5 6 7 8 9 10 11 12 13 14 15 16 17 18 19 20 21 22 23 24 25 26 27 28
000
ASUS44 KLIX 200013
RWRLIX
NEW ORLEANS REGIONAL WEATHER ROUNDUP
NATIONAL WEATHER SERVICE NEW ORLEANS LA
700 PM CDT THU OCT 19 2017

NOTE: "FAIR" INDICATES FEW OR NO CLOUDS BELOW 12,000 FEET WITH NO
      SIGNIFICANT WEATHER AND/OR OBSTRUCTIONS TO VISIBILITY.
      SKY/WX - SKY CONDITION AND SIGNIFICANT WEATHER.
      TMP - AIR TEMPERATURE.     DP    - DEWPOINT TEMPERATURE.
      RH  - RELATIVE HUMIDITY.   PRES  - PRESSURE.
      HI  - HEAT INDEX.          WCI   - WIND CHILL INDEX.

*  THESE STATIONS ARE NOT NWS OR FAA STATIONS AND ARE NOT UNDER
   NWS QUALITY CONTROL.

LAZ038-040-048-061>063-065>067-069-200100-
SOUTHEAST LOUISIANA

CITY           SKY/WX    TMP DP  RH WIND       PRES   REMARKS
N.O. INTL ARPT MOCLDY    74  65  73 E9        30.13R
6HR MIN TEMP:  74; 6HR MAX TEMP:  83;

N.O. LAKEFRONT CLEAR     75  69  81 SE12      30.14R
6HR MIN TEMP:  75; 6HR MAX TEMP:  81;

N.O. DOWNTOWN*   N/A     76  67  73 VRB6      30.15R
6HR MIN TEMP:  76; 6HR MAX TEMP:  81;

RESERVE*         N/A     75  64  67 SE5       30.13R
6HR MIN TEMP:  75; 6HR MAX TEMP:  84;

SLIDELL        CLEAR     73  65  75 CALM      30.14R
6HR MIN TEMP:  73; 6HR MAX TEMP:  85;

BATON ROUGE    CLEAR     74  61  63 E6        30.12R
6HR MIN TEMP:  74; 6HR MAX TEMP:  84;

BOOTHVILLE     CLEAR     80  70  71 E9        30.13R
6HR MIN TEMP:  79; 6HR MAX TEMP:  85; 6HR PCP:  0.01;

BELLE CHASSE   NOT AVBL
BOGALUSA*        N/A     69  64  83 CALM      30.16R
6HR MIN TEMP:  69; 6HR MAX TEMP:  85;

GALLIANO*      CLEAR     75  67  75 E7        30.12S
6HR MIN TEMP:  75; 6HR MAX TEMP:  82;

NEW ROADS*       N/A     73  63  69 NE3       30.13R
6HR MIN TEMP:  73; 6HR MAX TEMP:  82;

GONZALES*        N/A     75  64  67 CALM      30.11S
6HR MIN TEMP:  75; 6HR MAX TEMP:  83;

HAMMOND*       CLOUDY    72  64  78 S5        30.14R
HOUMA*         CLEAR     75  72  88 E8        30.12S
PORT FOURCHON* NOT AVBL

$$

MSZ070-080>082-200100-
SOUTHERN MISSISSIPPI

CITY           SKY/WX    TMP DP  RH WIND       PRES   REMARKS
MCCOMB         CLOUDY    71  62  73 CALM      30.15R
6HR MIN TEMP:  71; 6HR MAX TEMP:  81;

GULFPORT       PTCLDY    73  67  81 CALM      30.13S
6HR MIN TEMP:  72; 6HR MAX TEMP:  82;

BILOXI         CLEAR     74  65  74 E5        30.14R
6HR MIN TEMP:  74; 6HR MAX TEMP:  83;

PASCAGOULA     CLEAR     66  62  87 CALM      30.14R
6HR MIN TEMP:  66; 6HR MAX TEMP:  84;

STENNIS ARPT*  CLEAR     73  66  78 CALM      30.14S

$$

COASTAL OBSERVATIONS
LAKE AND NEARSHORE STATIONS

STATION/POSITION TIME  TEMP    WIND        PRES    WAVE
                       AIR SEA DIR/SP/G            HT/PER
                 (UTC) (F)     (DEG/KT/KT) (MB)    (FT/S)
PASCAGOULA       2348   75      70/  6/  8 1020.3
WAVELAND YACHT   2348   75 74  130/  5/  7 1020.6
GRAND ISLE       2348   77 77  100/ 12/ 19 1020.0
NEW CANAL        2348   75 76  140/  2/  6 1020.4
SHELL BEACH      2348   75 77  100/  9/ 12 1020.6

OFFSHORE STATIONS

STATION/POSITION TIME  TEMP    WIND        PRES    WAVE
                       AIR SEA DIR/SP/G            HT/PER
                 (UTC) (F)     (DEG/KT/KT) (MB)    (FT/S)
64 S DAUPHIN ISL 2350   78 82   70/ 16/ 19 1020.1    5/ 7

$$





USA.gov is the U.S. government's official web portal to all federal, state and local government web resources and services.